User: anonymous
Location: Owatonna
(44.0840°N, 93.2260°W)
Time: 20:17:57
(UTC-05:00)
Language:

Cosmos 839 Rocket - Orbit

View from above orbital plane
View from above orbital plane
View from above satellite
View from above satellite

Ground track
Ground track

The orbit data is extracted from the following two-line orbital elements,

1 09013U 76067B   14210.48380608 -.00000043  00000-0  39712-4 0  5264
2 09013 065.8632 252.1682 0707324 126.3129 333.6430 12.35303936716492
Epoch (UTC): 29 July 2014 11:36:40
Eccentricity: 0.0707324
inclination: 65.8632°
perigee height: 967 km
apogee height: 2085 km
right ascension of ascending node: 252.1682°
argument of perigee: 126.3129°
revolutions per day: 12.35303936
mean anomaly at epoch: 333.6430°
orbit number at epoch: 71649

The dashed part of the orbit path shows where the satellite is in the earth's shadow,  

DLR